Lexington Weather

Lexington, Massachusetts, USA

34°F
4/16/2021 9:57am 
  • Lexington Conditions: Snow, Mist, Overcast
  • Temperature: 33.8°F / 1.0°CColder 1.6°F than last hour.
  • Dew Point: 32.5°FDecreased 1.7°Fsince last hour.
  • Relative Humidity: 95
  • Wind: Calm, 10-min avg: Calm, gust: None
  • Barometer: 29.50 in Steady
  • Visibility: ½ mile
  • Snow Today: 0.3 in
  •   

Regional Weather Roundup
for Boston / Norton, MA

        
000
ASUS41 KBOX 121204
RWRBOX

REGIONAL WEATHER ROUNDUP
NATIONAL WEATHER SERVICE BOSTON/NORTON MA
800 AM EDT MON APR 12 2021

NOTE:  "FAIR" INDICATES FEW OR NO CLOUDS BELOW 12,000 FEET WITH NO 
SIGNIFICANT WEATHER AND/OR OBSTRUCTIONS TO VISIBILITY.

MAZALL-121300-
EASTERN MASSACHUSETTS
  
CITY           SKY/WX    TMP DP  RH WIND       PRES   REMARKS
BOSTON         PTSUNNY   49  41  74 NE16      29.80S                  
6HR MIN TEMP:  45; 6HR MAX TEMP:  49; 6HR PCP: TRACE;                

BEVERLY        NOT AVBL                                               
LAWRENCE       CLOUDY    46  42  86 NE7       29.83R                  
BEDFORD        MOSUNNY   46  40  79 NE7       29.80R                  
BLUE HILL        N/A     43  40  89 NE9G18    29.77R                  
NORWOOD        SUNNY     48  40  73 NE6       29.79S                  
MARSHFIELD     SUNNY     46  43  87 NE8       29.79S                  
PLYMOUTH       MOSUNNY   46  40  79 NE12      29.77S                  
TAUNTON        CLOUDY    46  39  76 VRB3      29.78R                  
NEW BEDFORD    MOSUNNY   46  38  73 NE7       29.77R                  
$$

MAZALL-121300-
CAPE COD AND THE ISLANDS
  
CITY           SKY/WX    TMP DP  RH WIND       PRES   REMARKS
FALMOUTH       CLOUDY    46  39  76 NE12      29.74S                  
HYANNIS        CLOUDY    48  40  73 NE12G24   29.74F                  
CHATHAM        MOSUNNY   46  40  79 NE12G17   29.78S                  
PROVINCETOWN   PTSUNNY   46  42  86 NE9       29.79R                  
NANTUCKET      SUNNY     46  40  79 NE15G23   29.75R                  
MARTHAS VNYRD  PTSUNNY   47  39  74 NE14      29.75S                  
$$
 
MAZALL-121300-
CENTRAL AND WESTERN MASSACHUSETTS
  
CITY           SKY/WX    TMP DP  RH WIND       PRES   REMARKS
WORCESTER      LGT RAIN  42  37  82 NE12G20   29.77S                  
6HR MIN TEMP:  42; 6HR MAX TEMP:  43; 6HR PCP: TRACE;                

FITCHBURG      PTSUNNY   46  39  76 NE7       29.82R                  
ORANGE         CLOUDY    45  41  86 VRB3      29.80S                  
SPRINGFIELD    CLOUDY    48  35  60 NE9       29.78R                  
WESTFIELD      CLOUDY    48  36  63 N9        29.78S                  
NORTH ADAMS    LGT RAIN  48  39  71 E12       29.78R                  
PITTSFIELD     CLOUDY    45  36  70 E7        29.75R                  
$$
 
RIZALL-121300-
RHODE ISLAND
  
CITY           SKY/WX    TMP DP  RH WIND       PRES   REMARKS
PROVIDENCE     PTSUNNY   47  38  71 NE15      29.78R                  
6HR MIN TEMP:  44; 6HR MAX TEMP:  47;                                

NEWPORT        CLOUDY    46  37  71 NE13      29.75S                  
BLOCK ISLAND   CLOUDY    45  38  76 NE14G20   29.74R                  
SMITHFIELD     SUNNY     44  40  85 NE14      29.78S                  
WESTERLY       CLOUDY    46  35  65 NE12      29.75R                  
$$
 
CTZALL-121300-
CONNECTICUT
  
CITY           SKY/WX    TMP DP  RH WIND       PRES   REMARKS
BRADLEY INTL   PTSUNNY   48  36  63 N10       29.78R                  
6HR MIN TEMP:  46; 6HR MAX TEMP:  48; 6HR PCP: TRACE;                

HARTFORD       CLOUDY    49  36  61 N8        29.78R                  
BRIDGEPORT     CLOUDY    49  36  61 NE14      29.76R                  
DANBURY        CLOUDY    47  38  71 E6        29.77R                  
GROTON         CLOUDY    48  34  58 NE10      29.75R                  
NEW HAVEN      CLOUDY    49  37  63 NE10      29.75R                  
CHESTER        CLOUDY    46  37  71 NE6       29.76R                  
MERIDEN        CLOUDY    48  35  60 NE8       29.77R                  
WILLIMANTIC    CLOUDY    46  35  65 NE8       29.77R                  
OXFORD         CLOUDY    45  38  76 NE13      29.76R                  
$$

MEZ002-015-021-024-NHZ003-005-008-011-012-014-VTZ005-008-121300-
NORTHERN NEW ENGLAND
  
CITY           SKY/WX    TMP DP  RH WIND       PRES   REMARKS
PORTLAND ME    CLOUDY    49  44  83 N13G20    29.84S                  
6HR MIN TEMP:  40; 6HR MAX TEMP:  49;                                

BANGOR ME      CLOUDY    47  45  93 NE12      29.87R FOG              
CONCORD NH     CLOUDY    46  41  82 N3        29.83S                  
MANCHESTER NH  CLOUDY    47  45  93 N8        29.81S FOG              
NASHUA NH      PTSUNNY   46  45  96 NE10      29.83R FOG              
PORTSMOUTH NH  CLOUDY    47  41  81 N8        29.83S                  
JAFFREY NH     PTSUNNY   45  38  76 CALM      29.80R                  
KEENE NH       PTSUNNY   47  38  71 NE5       29.81R                  
BURLINGTON VT  PTSUNNY   54  36  50 SE8       29.81R                  
MT. WASHINGTON NOT AVBL                                               
$$

NYZ052-076-121300-
EASTERN NEW YORK
  
CITY           SKY/WX    TMP DP  RH WIND       PRES   REMARKS
ALBANY         CLOUDY    44  39  82 NW3       29.79R                  
6HR MIN TEMP:  43; 6HR MAX TEMP:  48; 6HR PCP: TRACE;                

NEW YORK CITY  CLOUDY    48  36  63 E18       29.74R                  
6HR MIN TEMP:  46; 6HR MAX TEMP:  48; 6HR PCP: TRACE;                

$$
 
ANZALL-121300-
MARINE OBSERVATIONS
  
STATION/POSITION TIME  TEMP    WIND        PRES    VSBY  WAVE
                       AIR SEA DIR/SP/G                  HT/PER
                 (UTC) (F)     (DEG/KT/KT) (MB)    (MI)  (FT/S)
BOSTON BUOY      1140   45 44   40/ 14/ 16 1009.7R
BUZZARDS BAY     1100           40/ 17/ 18 1008.2R
NANTUCKET SOUND  1140      47                N/A
MASS BAY-STELLWA 1104   45      30/ 16/ 17 1008.0R  1 7/8  3/ 5
ISLE OF SHOALS   1100   45      30/ 11/ 13 1009.3R
S OF BLOCK IS    1126      45                N/A           5/ 5
$$

......................KEY.........................
  SKY/WX - SKY CONDITION/PRESENT WEATHER
  TMP    - TEMPERATURE IN FAHRENHEIT
  DWPT   - DEWPOINT IN FAHRENHEIT
  RH     - RELATIVE HUMIDITY IN PERCENT
  WIND   - DIRECTION AND SPEED IN MPH
  PRES   - MEAN SEA LEVEL PRESSURE IN INCHES OF HG
  WCI    - WIND CHILL INDEX
  VSB    - VISIBILITY IN MILES
  HX     - HEAT INDEX
  TC     - TEMPERATURE IN CELSIUS
  VRB    - VARIABLE WIND DIRECTION
  N/A    - NOT AVAILABLE
  
      

Other recent Regional Weather Roundups

Fri Apr 16, 9:04am

Fri Apr 16, 8:04am

Fri Apr 16, 7:04am

Fri Apr 16, 6:04am

Fri Apr 16, 5:04am

Fri Apr 16, 4:04am

Fri Apr 16, 3:04am

Fri Apr 16, 2:04am

Fri Apr 16, 1:04am

Fri Apr 16, 12:04am

Thu Apr 15, 11:05pm

Thu Apr 15, 10:04pm

Thu Apr 15, 9:04pm

Thu Apr 15, 8:04pm

Thu Apr 15, 7:05pm

Thu Apr 15, 6:04pm

Thu Apr 15, 5:05pm

Thu Apr 15, 4:04pm

Thu Apr 15, 3:05pm

Thu Apr 15, 2:04pm

Thu Apr 15, 1:05pm

Thu Apr 15, 12:04pm

Thu Apr 15, 11:04am

Thu Apr 15, 10:05am

Thu Apr 15, 9:04am

Thu Apr 15, 8:04am

Thu Apr 15, 7:04am

Thu Apr 15, 6:04am

Thu Apr 15, 5:04am

Thu Apr 15, 4:04am

Thu Apr 15, 3:04am

Thu Apr 15, 2:04am

Thu Apr 15, 1:04am

Thu Apr 15, 12:04am

Wed Apr 14, 11:04pm

Wed Apr 14, 10:04pm

Wed Apr 14, 9:04pm

Wed Apr 14, 8:04pm

Wed Apr 14, 7:04pm

Wed Apr 14, 6:04pm

Wed Apr 14, 5:05pm

Wed Apr 14, 4:04pm

Wed Apr 14, 3:05pm

Wed Apr 14, 2:04pm

Wed Apr 14, 1:05pm

Wed Apr 14, 12:04pm

Wed Apr 14, 11:04am

Wed Apr 14, 10:04am

Wed Apr 14, 9:04am

Wed Apr 14, 8:04am

Wed Apr 14, 7:04am

Wed Apr 14, 6:04am

Wed Apr 14, 5:04am

Wed Apr 14, 4:04am

Wed Apr 14, 3:04am

Wed Apr 14, 2:04am

Wed Apr 14, 1:04am

Wed Apr 14, 12:04am

Tue Apr 13, 11:04pm

Tue Apr 13, 10:05pm

Tue Apr 13, 9:05pm

Tue Apr 13, 8:05pm

Tue Apr 13, 7:04pm

Tue Apr 13, 6:04pm

Tue Apr 13, 5:05pm

Tue Apr 13, 4:04pm

Tue Apr 13, 3:04pm

Tue Apr 13, 2:05pm

Tue Apr 13, 1:04pm

Tue Apr 13, 12:05pm

Tue Apr 13, 11:05am

Tue Apr 13, 10:04am

Tue Apr 13, 9:04am

Tue Apr 13, 8:04am

Tue Apr 13, 7:04am

Tue Apr 13, 6:04am

Tue Apr 13, 5:04am

Tue Apr 13, 4:04am

Tue Apr 13, 3:04am

Tue Apr 13, 2:04am

Tue Apr 13, 1:04am

Tue Apr 13, 12:05am

Mon Apr 12, 11:04pm

Mon Apr 12, 10:04pm

Mon Apr 12, 9:04pm

Mon Apr 12, 8:04pm

Mon Apr 12, 7:05pm

Mon Apr 12, 6:04pm

Mon Apr 12, 5:04pm

Mon Apr 12, 4:04pm

Mon Apr 12, 3:05pm

Mon Apr 12, 2:04pm

Mon Apr 12, 1:05pm

Mon Apr 12, 12:04pm

Mon Apr 12, 11:04am

Mon Apr 12, 10:04am

Mon Apr 12, 9:04am

Mon Apr 12, 7:04am

Mon Apr 12, 6:04am

Mon Apr 12, 5:04am

Mon Apr 12, 4:04am

Mon Apr 12, 3:04am

Mon Apr 12, 2:04am

Mon Apr 12, 1:05am

Mon Apr 12, 12:04am

Sun Apr 11, 11:04pm

Sun Apr 11, 10:04pm

Sun Apr 11, 9:04pm

Sun Apr 11, 8:04pm

Sun Apr 11, 7:04pm

Sun Apr 11, 6:05pm

Sun Apr 11, 5:05pm

Sun Apr 11, 4:04pm

Sun Apr 11, 3:05pm

Sun Apr 11, 2:05pm

Sun Apr 11, 1:05pm

Sun Apr 11, 12:04pm

Sun Apr 11, 11:05am

Sun Apr 11, 10:05am

Sun Apr 11, 9:04am

Sun Apr 11, 8:04am

Sun Apr 11, 7:04am

Sun Apr 11, 6:04am

Sun Apr 11, 5:04am

Sun Apr 11, 4:04am

Sun Apr 11, 3:04am

Sun Apr 11, 2:04am

Sun Apr 11, 1:05am

Sun Apr 11, 12:04am

Sat Apr 10, 11:05pm

Sat Apr 10, 10:04pm

Sat Apr 10, 9:04pm

Sat Apr 10, 8:04pm

Sat Apr 10, 7:05pm

Sat Apr 10, 6:04pm

Sat Apr 10, 5:04pm

Sat Apr 10, 4:04pm

Sat Apr 10, 3:04pm

Sat Apr 10, 2:05pm

Sat Apr 10, 1:04pm

Sat Apr 10, 12:04pm

Sat Apr 10, 11:04am

Sat Apr 10, 10:04am

Sat Apr 10, 9:04am

Sat Apr 10, 8:04am

Sat Apr 10, 7:04am

Sat Apr 10, 6:04am

Sat Apr 10, 5:04am

Sat Apr 10, 4:04am

Sat Apr 10, 3:04am

Sat Apr 10, 2:04am

Sat Apr 10, 1:05am

Sat Apr 10, 12:04am

Fri Apr 9, 11:04pm

Fri Apr 9, 10:05pm

Fri Apr 9, 9:04pm

Fri Apr 9, 8:05pm

Fri Apr 9, 7:05pm

Fri Apr 9, 6:04pm

Fri Apr 9, 5:04pm

Fri Apr 9, 4:05pm

Fri Apr 9, 3:05pm

Fri Apr 9, 2:04pm

Fri Apr 9, 1:04pm

Fri Apr 9, 12:04pm

Fri Apr 9, 11:05am

Fri Apr 9, 10:04am

Meta data:

ID: 239c9580-af23-411a-a052-bda89fcb9d33
Link: https://api.weather.gov/products/239c9580-af23-411a-a052-bda89fcb9d33